[[{"header":{"parameterUnit":"m.s-1","parameterCategory":1,"la1":30.2992,"la2":30.254,"lo1":-89.0895,"lo2":-89.0443,"dy":0.0025,"dx":0.0025,"nx":19,"ny":19,"refTime":"2026-04-04T09:00:00:Z","depth":0,"parameterNumber":2,"parameterNumberName":"U-component_of_WINDS"},"data":[0,0,0,-0.1796,-0.1798,-0.1912,-0.1913,-0.2049,-0.205,0,0,0,0,0,0,0,0,0,0,0,-0.1753,-0.1754,-0.1796,-0.1799,-0.1912,-0.1913,-0.2049,-0.205,0,0,0,0,0,0,0,0,0,0,0,-0.1753,-0.1753,-0.1754,-0.1799,-0.1912,-0.1913,-0.2049,-0.1967,0,0,0,0,0,0,0,0,0,0,-0.1859,-0.1808,-0.1753,-0.1754,-0.18,-0.1912,-0.1913,-0.1964,-0.1972,-0.1993,0,-0.2004,0,-0.2029,-0.2059,-0.2059,0,0,0,-0.1807,-0.1801,-0.184,-0.1754,-0.1801,-0.1912,-0.1863,-0.1969,-0.1979,-0.2004,-0.2007,-0.2012,-0.2031,-0.2059,-0.206,-0.2142,-0.2142,0,0,-0.1801,-0.1769,-0.1833,-0.1846,-0.1823,-0.186,-0.1867,-0.1975,-0.1977,-0.2007,-0.2015,-0.2034,-0.206,-0.2061,-0.2142,-0.2142,0,0,0,-0.1777,-0.1764,-0.1801,-0.184,-0.1861,-0.1863,-0.1871,-0.1972,-0.1986,-0.2017,-0.2035,-0.2061,-0.2062,-0.2142,-0.2142,-0.211,0,0,0,-0.1774,-0.1751,-0.1798,-0.178,-0.1858,-0.1917,-0.1865,-0.1979,-0.1992,-0.2035,-0.2061,-0.2064,-0.2142,-0.2142,-0.2111,-0.2101,0,0,0,-0.1749,-0.1748,-0.1761,-0.1778,-0.1825,-0.1916,-0.1937,-0.1982,-0.2003,-0.2059,-0.2064,-0.2142,-0.2142,-0.2112,-0.2102,-0.2113,0,0,0,-0.1715,-0.1731,-0.1759,-0.1786,-0.1824,-0.1894,-0.1936,-0.1991,-0.2035,-0.2062,-0.2142,-0.2142,-0.2112,-0.2103,-0.2114,-0.2117,-0.2115,0,0,-0.1719,-0.1731,-0.1749,-0.1778,-0.1834,-0.1879,-0.1933,-0.2005,-0.2041,-0.2107,-0.211,-0.2111,-0.2102,-0.2114,-0.2115,-0.2112,0,0,0,-0.174,-0.1753,-0.1775,-0.1814,-0.1868,-0.1914,-0.1981,-0.2009,-0.2066,-0.2067,-0.2119,-0.2115,-0.2123,-0.2126,-0.2124,-0.2134,-0.2142,-0.2142,-0.2142,-0.1701,-0.1744,-0.1778,-0.1836,-0.1874,-0.1943,-0.198,-0.2029,-0.2063,-0.2075,-0.2094,-0.2089,-0.2091,-0.209,-0.21,-0.2099,-0.2099,-0.2099,-0.2099,-0.1712,-0.1737,-0.1781,-0.183,-0.1878,-0.1921,-0.199,-0.2013,-0.2063,-0.2077,-0.2087,-0.2099,-0.2087,-0.2098,-0.2097,-0.2098,-0.2098,-0.2098,-0.2098,-0.1691,-0.1711,-0.1742,-0.1804,-0.1849,-0.1909,-0.1954,-0.1996,-0.2037,-0.2046,-0.2073,-0.2074,-0.2081,-0.2056,-0.2056,-0.2056,-0.2056,-0.2056,-0.2056,-0.1657,-0.1693,-0.1724,-0.1783,-0.1815,-0.1863,-0.1935,-0.1969,-0.2018,-0.2046,-0.2047,-0.2081,-0.2077,-0.2075,-0.2056,-0.2056,-0.2056,-0.2056,-0.2056,-0.1651,-0.166,-0.1707,-0.1739,-0.1814,-0.1857,-0.191,-0.1977,-0.2012,-0.2034,-0.2067,-0.2056,-0.2073,-0.2075,-0.2074,-0.2056,-0.2056,-0.2056,-0.2056,-0.1634,-0.1646,-0.1705,-0.1754,-0.1807,-0.186,-0.1918,-0.1975,-0.2037,-0.2063,-0.2072,-0.2074,-0.2074,-0.2091,-0.2092,-0.2092,-0.2079,-0.2079,-0.2079,-0.1634,-0.1654,-0.1691,-0.1748,-0.1811,-0.1865,-0.1921,-0.1979,-0.2051,-0.2081,-0.2084,-0.2083,-0.2087,-0.2086,-0.2115,-0.2116,-0.2116,0,0]},{"header":{"parameterUnit":"m.s-1","parameterCategory":1,"la1":30.2992,"la2":30.254,"lo1":-89.0895,"lo2":-89.0443,"dy":0.0025,"dx":0.0025,"nx":19,"ny":19,"refTime":"2026-04-04T09:00:00:Z","depth":0,"parameterNumber":3,"parameterNumberName":"V-component_of_WINDS"},"data":[0,0,0,4.0181,4.0183,4.0273,4.0273,4.0388,4.0389,0,0,0,0,0,0,0,0,0,0,0,4.0157,4.0158,4.0181,4.0183,4.0273,4.0273,4.0388,4.0389,0,0,0,0,0,0,0,0,0,0,0,4.0156,4.0158,4.0159,4.0184,4.0273,4.0273,4.0388,4.0319,0,0,0,0,0,0,0,0,0,0,4.0232,4.0212,4.0157,4.0159,4.0184,4.0273,4.0273,4.0316,4.0324,4.0348,0,4.0373,0,4.0383,4.0397,4.0398,0,0,0,4.0181,4.0206,4.0229,4.0159,4.0185,4.0273,4.0232,4.032,4.0329,4.0358,4.0374,4.0379,4.0385,4.0398,4.0399,4.0554,4.0554,0,0,4.0176,4.0174,4.0223,4.0234,4.0223,4.0229,4.0235,4.0326,4.0342,4.0375,4.0381,4.0387,4.0399,4.04,4.0553,4.0554,0,0,0,4.0163,4.017,4.019,4.023,4.0246,4.0232,4.0238,4.0338,4.0345,4.0382,4.0388,4.0399,4.0401,4.0552,4.0553,4.0593,0,0,0,4.016,4.0163,4.0188,4.0188,4.0244,4.0294,4.0249,4.0338,4.0349,4.0388,4.0399,4.0402,4.0551,4.0553,4.059,4.0613,0,0,0,4.015,4.0162,4.0176,4.0188,4.0226,4.0292,4.0304,4.0341,4.0353,4.0398,4.0402,4.055,4.0552,4.0588,4.0608,4.0653,0,0,0,4.0138,4.0209,4.0176,4.0258,4.0226,4.0317,4.0304,4.0371,4.0415,4.04,4.0551,4.0553,4.0587,4.0605,4.065,4.0691,4.0708,0,0,4.0226,4.022,4.0268,4.0241,4.0338,4.0303,4.0405,4.0446,4.0451,4.0518,4.0522,4.0591,4.0608,4.0653,4.0803,4.0816,0,0,0,4.0295,4.0329,4.0355,4.0398,4.0432,4.0463,4.0489,4.0504,4.0561,4.0486,4.062,4.0629,4.0656,4.0675,4.0687,4.0709,4.0562,4.0562,4.0562,4.0416,4.042,4.05,4.0515,4.0556,4.0583,4.0616,4.064,4.0631,4.0663,4.0683,4.0774,4.0797,4.0805,4.0829,4.0704,4.0705,4.0705,4.0705,4.0546,4.0595,4.0583,4.0656,4.066,4.072,4.0747,4.0739,4.0794,4.0759,4.0782,4.0743,4.082,4.0841,4.0708,4.0707,4.0707,4.0707,4.0706,4.0626,4.0651,4.0669,4.0731,4.0778,4.079,4.0845,4.0845,4.0845,4.0869,4.089,4.0889,4.0889,4.0879,4.0879,4.0879,4.088,4.088,4.088,4.0702,4.0722,4.0769,4.0812,4.0839,4.0875,4.0902,4.0928,4.0957,4.0953,4.0953,4.0941,4.0827,4.0798,4.0885,4.0884,4.0883,4.0883,4.0883,4.0833,4.0804,4.0876,4.0904,4.0954,4.1,4.1001,4.1054,4.1075,4.1102,4.1085,4.1001,4.0993,4.0984,4.0961,4.1084,4.1084,4.1084,4.1084,4.0901,4.0897,4.0972,4.1017,4.106,4.1067,4.1148,4.1169,4.1186,4.1199,4.1181,4.115,4.114,4.1138,4.1126,4.1104,4.1261,4.1261,4.1261,4.0981,4.0982,4.1052,4.107,4.1109,4.1142,4.1218,4.1267,4.1279,4.1268,4.1209,4.1202,4.1151,4.1135,4.1122,4.1103,4.1063,0,0]}]]